Погода в Пола-Успенье

Россия / Орловская область     52°39′39″N   37°47′14″E
темп.,
°C
ветер,
м/с
пор.,
м/с
влажн.,
%
обл.,
%
осадки,
мм/ч
давл.,
гПа
погр.,
м
23 октября, сб
сб2300:00+8зюз510645 0.0 1009345
03:00+6юз513675 0.0 1010421
06:00+5юз512714 0.0 1010347
09:00+6юз513605 0.0 1010488
12:00+10зюз8134560 0.0 10101402
15:00+10з81252100 0.0 10111798
18:00+7зюз611625 0.0 1012625
21:00+5з612805 0.0 1014637
24 октября, вс
вс2400:00+4з612755 0.0 1015565
03:00+6з71159100 0.0 10151239
06:00+5зюз61168100 0.0 1015486
09:00+5зюз61172100 0.0 1016729
12:00+6зсз7106897 0.2 10161243
15:00+5зсз697484 0.3 1017940
18:00+3сз6108497 0.5 1019937
21:00+2сз7117662 0.6 1020861
25 октября, пн
пн2500:00+1ссз7127511 0.0 1022814
03:00−1ссз7128235 0.0 1024697
06:00−2ссз6128726 0.0 1027587
09:00−1ссз610775 0.0 1029597
12:00+3с67505 0.0 1030971
15:00+4ссз564483 0.0 10301040
18:00+1сз22576 0.0 103235
21:000зсз22645 0.0 103218
26 октября, вт
вт2600:00−1зюз34670 0.0 103267
03:00−1зюз36700 0.0 1033129
06:00−2зюз49750 0.0 1032179
09:000юз49647 0.0 1032275
12:00+5зюз684640 0.0 1030557
15:00+7зюз69427 0.0 1028685
18:00+3юз411535 0.0 1028283
21:00+2юз513545 0.0 1027315
27 октября, ср
ср2700:00+1юз5135775 0.0 1027310
03:00+1юз5136082 0.0 1026290
06:000юз51358100 0.0 1025290
09:00+2юз61452100 0.0 1024404
12:00+5юз71443100 0.0 1023593
15:00+6юз71341100 0.0 1021694
18:00+5юз61345100 0.0 1020567
21:00+4зюз61264100 0.0 1020461